{"data":{"norad_id":58219,"epoch":"2026-05-25T05:16:07.811040Z","epoch_age_seconds":59316,"freshness":"FRESH","line1":"1 58219U 23170P   26145.21953485  .00014937  00000+0  55104-3 0  9994","line2":"2 58219  42.9981 122.0277 0001269 273.7604  86.3102 15.27590953142001","mean_motion":15.27590953,"eccentricity":0.0001269,"inclination_deg":42.9981,"raan_deg":122.0277,"arg_perigee_deg":273.7604,"mean_anomaly_deg":86.3102,"bstar":0.00055104,"rev_number":14200,"period_min":94.266072810396,"perigee_km":482.14561865965,"apogee_km":483.88697936694,"semimajor_km":6861.1532990133,"source":"CELESTRAK","updated_at":"2026-05-25T13:38:18.576730Z"}}